AO-27
1 22825U 93061C 18256.87007038 -.00000006 00000-0 15457-4 0 9996
2 22825 98.8719 234.6326 0009515 88.2925 271.9347 14.30039047302248
IO-26
1 22826U 93061D 18256.51659106 -.00000008 00000-0 14807-4 0 9997
2 22826 098.8660 234.2989 0010037 079.7982 280.4332 14.30370904302131
FO-29
1 24278U 96046B 18256.51869031 -.00000035 00000-0 26237-5 0 9997
2 24278 98.5154 83.0982 0349468 241.6420 114.9069 13.53085538 90189
NOAA-15
1 25338U 98030A 18256.60867964 .00000015 00000-0 24964-4 0 9994
2 25338 098.7674 273.0898 0009950 336.4197 023.6525 14.25874843057367
GO-32
1 25397U 98043D 18256.79749901 -.00000013 00000-0 13444-4 0 9993
2 25397 98.6544 195.7908 0002303 105.9071 254.2362 14.23651071 48336
ISS
1 25544U 98067A 18256.88108796 .00001548 00000-0 30941-4 0 9998
2 25544 51.6415 296.7008 0005107 154.1352 187.7865 15.53844403132308
NO-44
1 26931U 01043C 18256.58871105 -.00000021 00000-0 23558-4 0 9997
2 26931 067.0533 001.3032 0007542 261.8320 098.1926 14.30516247885128
SO-50
1 27607U 02058C 18256.18880820 -.00000004 00000-0 20353-4 0 9996
2 27607 64.5551 181.0301 0073649 309.9496 49.5151 14.75478683845941
CO-55
1 27844U 03031E 18256.60820242 .00000033 00000-0 34445-4 0 9998
2 27844 098.6878 263.9625 0010864 113.1641 247.0682 14.22132460788728
CO-57
1 27848U 03031J 18256.52182912 .00000021 00000-0 29401-4 0 9991
2 27848 98.6962 264.3041 0010665 123.1334 237.0868 14.21734267788617
RS-22
1 27939U 03042A 18256.88036369 .00000111 00000-0 28521-4 0 9999
2 27939 98.0034 33.7888 0012049 223.1165 288.4844 14.66713933799814
NOAA-18
1 28654U 05018A 18256.58735082 -.00000013 00000-0 18263-4 0 9998
2 28654 099.1379 293.8065 0013526 236.9508 123.0365 14.12384713686169
CO-58
1 28895U 05043F 18256.40169805 .00000110 00000-0 29938-4 0 9996
2 28895 97.9214 44.3456 0017607 146.9966 213.2340 14.63579463686782
Falconsat-3
1 30776U 07006E 18256.48167671 .00002469 00000-0 72731-4 0 9993
2 30776 035.4358 064.5131 0001895 114.9301 245.1623 15.34885849637896
CO-65
1 32785U 08021C 18256.46718287 .00000177 00000-0 24813-4 0 9998
2 32785 097.5476 264.4319 0014664 104.1974 256.0873 14.88171718562236
AAUSAT2
1 32788U 08021F 18256.60680903 .00000740 00000-0 73608-4 0 9992
2 32788 097.5175 279.4112 0013158 057.3157 302.9331 14.94443829563289
DO-64
1 32789U 08021G 18256.60283177 .00000881 00000-0 64026-4 0 9995
2 32789 097.5043 309.1444 0012229 004.4081 355.7252 15.06291301564997
CO-66
1 32791U 08021J 18256.54555117 .00000234 00000-0 29201-4 0 9995
2 32791 97.5348 270.0567 0015031 85.1622 275.1313 14.90623834562679
RS-30
1 32953U 08025A 18256.81349643 .00000024 00000-0 99045-4 0 9994
2 32953 82.5040 317.5665 0019142 20.3254 339.8584 12.43085397467783
PRISM
1 33493U 09002B 18256.77557009 .00000987 00000-0 92671-4 0 9998
2 33493 98.1217 162.2319 0016480 26.7863 333.4194 14.96332315523595
NOAA-19
1 33591U 09005A 18256.55573710 .00000024 00000-0 38027-4 0 9990
2 33591 099.1508 236.3739 0015018 079.4279 280.8583 14.12306993494381
TISAT-1
1 36799U 10035E 18256.44230511 .00000240 00000-0 30458-4 0 9995
2 36799 98.1190 35.0644 0010947 279.6920 80.3061 14.90875311443303
JUGNU
1 37839U 11058B 18256.30198684 .00000328 00000-0 32923-4 0 9992
2 37839 19.9602 222.9357 0019126 137.8708 2.1918 14.12628534357846
SRMSAT
1 37841U 11058D 18256.44874578 .00000311 00000-0 26078-4 0 9999
2 37841 19.9716 273.0728 0012008 21.1180 127.9188 14.10613821357368
AO-71
1 37854U 11061E 18256.86635033 .00002860 00000-0 15458-3 0 9994
2 37854 101.7022 7.2447 0163092 170.4561 189.9814 15.05685069375179
HRBE
1 37855U 11061F 18256.52069736 .00002740 00000-0 14588-3 0 9999
2 37855 101.7148 004.2368 0175993 180.7794 179.3169 15.04664342374460
ALMASAT-1
1 38078U 12006B 18256.87605500 .00023875 39966-5 19251-3 0 9992
2 38078 69.4319 330.4402 0224718 330.7273 148.1157 15.45263623354337
HORYU-2
1 38340U 12025D 18256.56709568 .00000149 00000-0 29996-4 0 9999
2 38340 098.3621 281.3019 0010312 292.1825 067.8289 14.75597711329730
RS-40
1 38735U 12041C 18256.60241082 .00000010 00000-0 -88163-6 0 9993
2 38735 082.4769 041.4779 0017715 120.7982 239.4844 12.42577366277986
BEESAT-3
1 39135U 13015F 18256.50745442 .00000748 00000-0 47719-4 0 9995
2 39135 064.8689 215.6762 0015759 232.1031 127.8670 15.16862502297658
BEESAT-2
1 39136U 13015G 18256.90426858 .00001051 00000-0 63879-4 0 9990
2 39136 64.8692 217.4224 0015742 233.1836 126.7846 15.16322122298048
ZACUBE-1
1 39417U 13066B 18256.55487342 .00000171 00000-0 28080-4 0 9991
2 39417 97.5826 280.4525 0057983 224.6144 135.0395 14.80977121259871
TRITON-1
1 39427U 13066M 18256.58768807 .00000201 00000-0 40258-4 0 9998
2 39427 097.6481 246.6882 0113484 336.9124 022.7004 14.67712887257355
GOMX-1
1 39430U 13066Q 18256.90472005 .00000256 00000-0 54965-4 0 9990
2 39430 97.7067 227.4299 0152738 50.8646 310.6016 14.59122203256084
LO-74
1 39440U 13066AA 18256.55949553 .00000167 00000-0 30544-4 0 9997
2 39440 97.6010 266.5430 0078877 268.5321 90.6853 14.75718030258951
AO-73
1 39444U 13066AE 18256.63896111 .00000212 00000-0 32606-4 0 9993
2 39444 97.5831 282.1684 0057219 219.2516 140.4543 14.81769717258759
SPROUT
1 39770U 14029E 18256.74972136 .00000571 00000-0 69960-4 0 9990
2 39770 97.8782 357.0795 0008061 280.8766 79.1539 14.86963590233527
DUCHIFAT-1
1 40021U 14033M 18256.34710089 .00000296 00000-0 36303-4 0 9998
2 40021 97.9127 175.2164 0011516 246.3077 113.6932 14.90382736230084
NANOSATCBR1
1 40024U 14033Q 18256.83511770 .00000331 00000-0 40601-4 0 9997
2 40024 97.9055 173.7684 0010798 247.1663 112.8414 14.89636296230074
EO-79
1 40025U 14033R 18256.79989327 .00000243 00000-0 31973-4 0 9994
2 40025 97.9005 172.0004 0011053 252.4328 107.5682 14.88770386229973
DTUSAT-2
1 40030U 14033W 18256.18327992 .00000238 00000-0 31697-4 0 9994
2 40030 97.8948 169.9651 0010513 249.3273 110.6817 14.88373896229825
EO-80
1 40032U 14033Y 18256.71550421 .00000254 00000-0 33552-4 0 9990
2 40032 97.8954 170.4975 0010490 247.9036 112.1067 14.88312767229896
ANTELSAT
1 40034U 14033AA 18256.59201487 .00000169 00000-0 32865-4 0 9994
2 40034 097.7976 129.9376 0057388 273.5572 085.9075 14.73967291227179
VELOX-1
1 40057U 14034E 18256.89264385 .00000218 00000-0 38239-4 0 9995
2 40057 98.2106 9.5095 0011992 48.4989 311.7250 14.77484837226749
DAURIA DX 1
1 40071U 14037C 18256.84816368 .00000055 00000-0 14576-4 0 9990
2 40071 98.3878 32.2283 0009338 43.1606 317.0337 14.81187480226129
UKUBE-1
1 40074U 14037F 18240.91278944 -.00000065 00000-0 -72198-6 0 9995
2 40074 98.3957 21.8881 0005559 76.7066 283.4767 14.83848540224080
HODOYOSHI-1
1 40299U 14070B 18256.83694782 .00000520 00000-0 25049-4 0 9996
2 40299 97.3740 337.0302 0011613 304.3184 194.7467 15.23014339213970
CHUBUSAT-1
1 40300U 14070C 18256.81005505 .00000664 00000-0 32283-4 0 9993
2 40300 97.3569 332.5895 0019862 314.9787 181.4406 15.21697029213752
QSAT-EOS
1 40301U 14070D 18256.85049045 .00001460 00000-0 60911-4 0 9999
2 40301 97.3550 334.2984 0025015 302.5523 194.4170 15.25025415213939
FIREBIRD FU3
1 40377U 15003B 18256.54956333 .00002426 00000-0 10184-3 0 9991
2 40377 099.0799 175.7996 0129256 297.0152 061.7929 15.17590355199713
FIREBIRD FU4
1 40378U 15003C 18256.73570660 .00002454 00000-0 10288-3 0 9994
2 40378 99.0802 176.0848 0129457 296.2794 62.5181 15.17599276199759
